Regional Weather Roundup
Issued by NWS Upton, NY

Current Version | Previous Version | Graphics & Text | Print | Product List | Glossary Off
Versions: 1 2 3 4 5 6 7 8 9 10 11 12 13 14 15 16 17 18 19 20 21 22 23 24 25 26 27 28 29 30 31 32 33 34 35 36 37 38 39 40 41 42 43 44 45 46 47 48 49 50

000
ASUS41 KOKX 180208
RWROKX

REGIONAL WEATHER ROUNDUP
NATIONAL WEATHER SERVICE NEW YORK NY
1000 PM EDT THU AUG 17 2017

NOTE: "FAIR" INDICATES FEW OR NO CLOUDS BELOW 12,000 FEET WITH NO
SIGNIFICANT WEATHER AND/OR OBSTRUCTIONS TO VISIBILITY.

NYZ071-072-176-178-NJZ106-104-180300-
NEW YORK CITY METRO AREA

CITY           SKY/WX    TMP DP  RH WIND       PRES   REMARKS
Central Park   PTCLDY    74  70  87 CALM      30.01S
Bronx Bot Gard   N/A     73  66  78 E1        29.99F
LaGuardia APRT CLOUDY    75  71  87 SE6       29.97F
Kennedy INTL   CLOUDY    75  73  93 SE7       29.99S
Breezy Point     N/A     73 N/A N/A SE6         N/A
Newark/Liberty MOCLDY    73  71  93 SE6       29.98R
Teterboro      PTCLDY    76  69  79 S3        29.97R
$$

NYZ177-179-078>081-180300-
LONG ISLAND NEW YORK

CITY           SKY/WX    TMP DP  RH WIND       PRES   REMARKS
Jones Beach      N/A     72 N/A N/A SE5         N/A
Matinecock PT    N/A     72 N/A N/A CALM        N/A
Farmingdale    CLOUDY    73  69  87 SE6       29.99F
MacArthur/ISP  MOCLDY    72  69  90 SE7       30.00S
Shirley        CLEAR     71  67  87 CALM      30.01S
Mt Sinai Harb    N/A    N/A N/A N/A S8          N/A
Westhampton    CLEAR     64  59  83 SE3       30.02S
East Hampton   FAIR      62  59  90 CALM      30.00F
Montauk          N/A     70  63  78 VRB5      30.02F
$$

NYZ052-065-067-180300-
HUDSON VALLEY

CITY           SKY/WX    TMP DP  RH WIND       PRES   REMARKS
White Plains   PTCLDY    69  62  78 SE3       29.99S
Larchmont Harb   N/A     72 N/A N/A SE5         N/A
Croton On Huds   N/A     73 N/A N/A E2          N/A
Newburgh       PTCLDY    73  64  73 VRB7      29.99S
Montgomery     CLOUDY    71  65  81 S3        29.97S
Poughkeepsie   CLOUDY    73  61  65 S7        29.96S
Albany         CLOUDY    70  59  68 CALM      29.96S
$$

NJZ001-105-106-008-010-013-015-019>022-104-180300-
NEW JERSEY

CITY           SKY/WX    TMP DP  RH WIND       PRES   REMARKS
Newark/Liberty MOCLDY    73  71  93 SE6       29.98R
Teterboro      PTCLDY    76  69  79 S3        29.97R
Caldwell       MOCLDY    74  71  91 VRB3      29.99R
Somerville     CLOUDY    73  69  87 CALM      29.96R
Linden         FAIR      75  71  87 CALM      29.98R
Perth Amboy      N/A     73 N/A N/A SE8         N/A
Sussex         CLOUDY    71  68  90 CALM      29.98R
Andover          N/A     73  66  78 VRB3      29.99R
Trenton        PTCLDY    78  66  66 S8        29.96S
Millville      CLEAR     76  75  97 SE3       29.97R
Atlantic City  CLOUDY    79  72  79 S8        29.98R
Wrightstown    PTCLDY    74  70  87 SE5       29.95R
Toms River     MOCLDY    75  73  93 SE7       29.99R
Belmar         CLEAR     74  73  97 SE6       30.00R
$$

PAZ047>061-062-071-180300-
EASTERN PENNSYLVANIA

CITY           SKY/WX    TMP DP  RH WIND       PRES   REMARKS
Philadelphia   CLOUDY    78  70  76 S8        29.96R
Allentown      CLOUDY    80  68  66 S6        29.96R
Scranton       CLOUDY    77  65  66 SE10G18   29.94F
$$

CTZ002-004>006-009-010-012-RIZ004-006-007-MAZ004-011-015-180300-
SOUTHERN NEW ENGLAND
 IN CT

CITY           SKY/WX    TMP DP  RH WIND       PRES   REMARKS
Bradley INTL   CLOUDY    71  58  63 S6        29.99S
Hartford       PTCLDY    71  59  65 S3        29.99S
Danbury        PTCLDY    70  61  73 CALM      30.01S
Wtrbury/Oxford CLOUDY    67  60  78 S6        30.02S
Norwalk Harbor   N/A     72 N/A N/A SE6         N/A
Bridgeport     CLEAR     72  64  76 S6        30.00R
Meriden        CLOUDY    65  60  84 CALM      30.00S
New Haven      PTCLDY    70  63  78 S5        30.00S
Chester        NOT AVBL
Groton         PTCLDY    68  63  84 CALM      30.00F
Wilimantic     PTCLDY    67  60  78 CALM      30.01S

 IN RI

CITY           SKY/WX    TMP DP  RH WIND       PRES   REMARKS
Providence     MOCLDY    66  57  72 S5        30.02R
Block Island   CLEAR     69  64  84 S8        30.02S
Westerly       PTCLDY    67  62  84 CALM      30.02S
 IN MA

CITY           SKY/WX    TMP DP  RH WIND       PRES   REMARKS
Boston         CLOUDY    70  56  61 S9        29.99S
Worcester      MOCLDY    65  54  67 SW8       30.03S
Westfield      PTCLDY    68  63  84 SE3       29.99R
Provincetown   CLOUDY    68  61  78 SW9       30.01S
Nantucket      PTCLDY    60  58  92 S7        30.04R
$$

ANZ330-335-338-340-345-350-353-355-180300-
COASTAL MARINE OBSERVATIONS


STATION/POSITION TIME  SKY/WX   TEMP    WIND        PRES    VSBY  WAVE
                                AIR SEA DIR/SP/G                  HT/PER
                 (UTC)          (F)     (DEG/KT/KT) (MB)    (MI)  (FT/S)
NY HARB ENTRANCE 0050            75 76  140/ 10/ 12 1014.7          2/ 8
GREAT SOUTH BAY  0130            73 78  150/  8/ 10   N/A
23 SSW MONTAUK P 0050            71 72              1016.7          2/ 8
15 E BARNEGAT LI 0130               77                N/A           3/ 8
HUDSON CANYON    0050            75 76  180/  6/  6 1015.3          3/ 8
KINGS POINT      0130            73 74  170/  4/  7 1015.1
EXECUTION ROCKS  NOT AVBL
WESTERN LI SOUND NOT AVBL
CENTRAL LI SOUND NOT AVBL
EASTERN LI SOUND NOT AVBL
ROBBINS REEF     0124                   140/ 13/ 14 1015.6
$$


>>>>>>>>>>>>>>>>>>>>>>>>>>>> KEY <<<<<<<<<<<<<<<<<<<<<<<<<<<
>                                                          <
>     SKY/WX - Sky Condition/Present Weather               <
>     TMP    - Temperature in Fahrenheit                   <
>     DP     - Dew Point in Fahrenheit                     <
>     RH     - Relative Humidity in Percent                <
>     WIND   - Direction (from) and Speed in MPH           <
>     PRES   - Mean Sea Level Pressure (inches of Hg)      <
>     WCI    - Wind Chill Index                            <
>     VSB    - VISIBILITY IN MILES                         <
>     HX     - HEAT INDEX                                  <
>     TC     - TEMPERATURE IN CELSIUS                      <
>     VRB    - VARIABLE WIND DIRECTION                     <
>                                                          <
>>>>>>>>>>>>>>>>>>>>>>>>>>>> KEY <<<<<<<<<<<<<<<<<<<<<<<<<<<



USA.gov is the U.S. government's official web portal to all federal, state and local government web resources and services.